Time,TemperatureF,DewpointF,PressureIn,WindDirection,WindDirectionDegrees,WindSpeedMPH,WindSpeedGustMPH,Humidity,HourlyPrecipIn,Conditions,Clouds,dailyrainin,SoftwareType,DateUTC
2013-03-21 00:14:00,59.4,59.0,29.91,NNW,331,0.0,0.0,97,0.00,,,0.00,weatherlink.com 1.10,2013-03-21 04:14:00,
2013-03-21 00:30:00,59.2,58.0,29.91,NNW,331,0.0,2.0,97,0.00,,,0.00,weatherlink.com 1.10,2013-03-21 04:30:00,
2013-03-21 00:44:00,59.7,59.0,29.91,NW,309,2.0,4.0,97,0.00,,,0.00,weatherlink.com 1.10,2013-03-21 04:44:00,
2013-03-21 01:00:00,60.1,59.0,29.91,NW,306,0.0,6.0,97,0.00,,,0.00,weatherlink.com 1.10,2013-03-21 05:00:00,
2013-03-21 01:16:00,60.2,59.0,29.90,NW,325,0.0,6.0,97,0.00,,,0.00,weatherlink.com 1.10,2013-03-21 05:16:00,
2013-03-21 01:32:00,59.9,59.0,29.91,NW,309,1.0,4.0,96,0.00,,,0.00,weatherlink.com 1.10,2013-03-21 05:32:00,
2013-03-21 01:52:00,59.8,59.0,29.91,West,265,0.0,4.0,96,0.00,,,0.00,weatherlink.com 1.10,2013-03-21 05:52:00,
2013-03-21 02:06:00,59.8,59.0,29.91,West,278,1.0,4.0,96,0.00,,,0.00,weatherlink.com 1.10,2013-03-21 06:06:00,
2013-03-21 02:21:00,59.8,59.0,29.90,WNW,283,0.0,4.0,96,0.00,,,0.00,weatherlink.com 1.10,2013-03-21 06:21:00,
2013-03-21 02:52:00,59.4,58.0,29.92,NW,315,2.0,8.0,95,0.00,,,0.00,weatherlink.com 1.10,2013-03-21 06:52:00,
2013-03-21 03:12:00,59.5,58.0,29.91,North,5,4.0,6.0,94,0.00,,,0.00,weatherlink.com 1.10,2013-03-21 07:12:00,
2013-03-21 03:24:00,59.5,57.0,29.91,North,351,2.0,11.0,91,0.00,,,0.00,weatherlink.com 1.10,2013-03-21 07:24:00,
2013-03-21 03:41:00,59.3,56.0,29.90,West,269,0.0,8.0,89,0.00,,,0.00,weatherlink.com 1.10,2013-03-21 07:41:00,
2013-03-21 04:00:00,59.3,55.0,29.90,NNW,338,1.0,8.0,85,0.00,,,0.00,weatherlink.com 1.10,2013-03-21 08:00:00,
2013-03-21 04:12:00,59.5,54.0,29.90,NNW,332,0.0,13.0,82,0.00,,,0.00,weatherlink.com 1.10,2013-03-21 08:12:00,
2013-03-21 04:29:00,59.5,52.0,29.89,North,350,2.0,10.0,76,0.00,,,0.00,weatherlink.com 1.10,2013-03-21 08:29:00,
2013-03-21 04:45:00,59.5,52.0,29.89,WNW,294,1.0,10.0,75,0.00,,,0.00,weatherlink.com 1.10,2013-03-21 08:45:00,
2013-03-21 05:02:00,59.6,50.0,29.89,NNW,334,2.0,15.0,71,0.00,,,0.00,weatherlink.com 1.10,2013-03-21 09:02:00,
2013-03-21 05:19:00,59.3,49.0,29.90,NNE,17,3.0,11.0,68,0.00,,,0.00,weatherlink.com 1.10,2013-03-21 09:19:00,
2013-03-21 05:34:00,59.0,47.0,29.90,NE,37,3.0,13.0,65,0.00,,,0.00,weatherlink.com 1.10,2013-03-21 09:34:00,
2013-03-21 05:48:00,58.7,46.0,29.90,North,5,8.0,10.0,62,0.00,,,0.00,weatherlink.com 1.10,2013-03-21 09:48:00,
2013-03-21 06:06:00,58.0,43.0,29.91,NNE,31,7.0,8.0,58,0.00,,,0.00,weatherlink.com 1.10,2013-03-21 10:06:00,
2013-03-21 06:20:00,58.0,44.0,29.92,North,5,3.0,13.0,60,0.00,,,0.00,weatherlink.com 1.10,2013-03-21 10:20:00,
2013-03-21 06:37:00,57.5,44.0,29.93,NNE,13,3.0,9.0,60,0.00,,,0.00,weatherlink.com 1.10,2013-03-21 10:37:00,
2013-03-21 06:53:00,56.5,43.0,29.93,NE,51,1.0,8.0,62,0.00,,,0.00,weatherlink.com 1.10,2013-03-21 10:53:00,
2013-03-21 07:10:00,54.9,44.0,29.94,ENE,78,2.0,3.0,67,0.00,,,0.00,weatherlink.com 1.10,2013-03-21 11:10:00,
2013-03-21 07:25:00,53.3,44.0,29.94,ENE,75,0.0,3.0,71,0.00,,,0.00,weatherlink.com 1.10,2013-03-21 11:25:00,
2013-03-21 07:42:00,52.6,45.0,29.95,ENE,69,1.0,2.0,75,0.00,,,0.00,weatherlink.com 1.10,2013-03-21 11:42:00,
2013-03-21 07:57:00,52.4,46.0,29.95,ENE,71,1.0,3.0,78,0.00,,,0.00,weatherlink.com 1.10,2013-03-21 11:57:00,
2013-03-21 08:13:00,52.8,46.0,29.96,ENE,71,0.0,3.0,78,0.00,,,0.00,weatherlink.com 1.10,2013-03-21 12:13:00,
2013-03-21 08:28:00,53.8,46.0,29.96,ENE,67,1.0,6.0,75,0.00,,,0.00,weatherlink.com 1.10,2013-03-21 12:28:00,
2013-03-21 08:44:00,55.5,46.0,29.96,ENE,61,1.0,4.0,70,0.00,,,0.00,weatherlink.com 1.10,2013-03-21 12:44:00,
2013-03-21 08:59:00,57.1,46.0,29.96,ENE,59,1.0,4.0,67,0.00,,,0.00,weatherlink.com 1.10,2013-03-21 12:59:00,
2013-03-21 09:15:00,58.8,45.0,29.96,ENE,67,5.0,5.0,61,0.00,,,0.00,weatherlink.com 1.10,2013-03-21 13:15:00,
2013-03-21 09:37:00,60.9,43.0,29.97,NNE,23,3.0,6.0,53,0.00,,,0.00,weatherlink.com 1.10,2013-03-21 13:37:00,
2013-03-21 09:47:00,62.1,43.0,29.97,NNW,331,3.0,7.0,50,0.00,,,0.00,weatherlink.com 1.10,2013-03-21 13:47:00,
2013-03-21 10:03:00,63.4,44.0,29.97,NNE,20,3.0,9.0,49,0.00,,,0.00,weatherlink.com 1.10,2013-03-21 14:03:00,
2013-03-21 10:20:00,63.6,44.0,29.98,NE,37,2.0,10.0,49,0.00,,,0.00,weatherlink.com 1.10,2013-03-21 14:20:00,
2013-03-21 10:35:00,64.5,41.0,29.99,NNE,22,5.0,9.0,43,0.00,,,0.00,weatherlink.com 1.10,2013-03-21 14:35:00,
2013-03-21 10:51:00,64.2,42.0,29.98,NW,323,6.0,10.0,45,0.00,,,0.00,weatherlink.com 1.10,2013-03-21 14:51:00,
2013-03-21 11:11:00,64.8,42.0,30.00,North,360,5.0,9.0,44,0.00,,,0.00,weatherlink.com 1.10,2013-03-21 15:11:00,
2013-03-21 11:23:00,65.1,41.0,30.01,WNW,292,2.0,10.0,42,0.00,,,0.00,weatherlink.com 1.10,2013-03-21 15:23:00,
2013-03-21 11:40:00,64.6,40.0,30.02,West,281,6.0,12.0,40,0.00,,,0.00,weatherlink.com 1.10,2013-03-21 15:40:00,
2013-03-21 11:57:00,64.3,39.0,30.01,NE,34,2.0,11.0,40,0.00,,,0.00,weatherlink.com 1.10,2013-03-21 15:57:00,
2013-03-21 12:12:00,64.0,41.0,30.00,ENE,60,2.0,13.0,43,0.00,,,0.00,weatherlink.com 1.10,2013-03-21 16:12:00,
2013-03-21 12:27:00,65.7,39.0,30.00,West,268,3.0,13.0,38,0.00,,,0.00,weatherlink.com 1.10,2013-03-21 16:27:00,
2013-03-21 12:45:00,65.9,39.0,29.99,NE,38,2.0,9.0,38,0.00,,,0.00,weatherlink.com 1.10,2013-03-21 16:45:00,
2013-03-21 13:01:00,66.5,40.0,29.99,North,5,0.0,10.0,38,0.00,,,0.00,weatherlink.com 1.10,2013-03-21 17:01:00,
2013-03-21 13:15:00,65.9,41.0,29.99,NNW,330,2.0,12.0,41,0.00,,,0.00,weatherlink.com 1.10,2013-03-21 17:15:00,
2013-03-21 13:32:00,67.1,40.0,29.98,NNW,344,2.0,10.0,37,0.00,,,0.00,weatherlink.com 1.10,2013-03-21 17:32:00,
2013-03-21 13:49:00,66.5,39.0,29.98,NNW,333,4.0,8.0,36,0.00,,,0.00,weatherlink.com 1.10,2013-03-21 17:49:00,
2013-03-21 14:04:00,65.9,37.0,29.97,NE,43,3.0,9.0,34,0.00,,,0.00,weatherlink.com 1.10,2013-03-21 18:04:00,
2013-03-21 14:19:00,66.4,38.0,29.96,NW,317,4.0,11.0,35,0.00,,,0.00,weatherlink.com 1.10,2013-03-21 18:19:00,
2013-03-21 14:36:00,66.3,39.0,29.96,North,355,3.0,11.0,37,0.00,,,0.00,weatherlink.com 1.10,2013-03-21 18:36:00,
2013-03-21 14:51:00,65.7,41.0,29.96,North,5,7.0,10.0,41,0.00,,,0.00,weatherlink.com 1.10,2013-03-21 18:51:00,
2013-03-21 15:07:00,65.9,41.0,29.95,NNE,23,3.0,9.0,40,0.00,,,0.00,weatherlink.com 1.10,2013-03-21 19:07:00,
2013-03-21 15:24:00,65.4,41.0,29.95,WSW,237,6.0,8.0,41,0.00,,,0.00,weatherlink.com 1.10,2013-03-21 19:24:00,
2013-03-21 15:41:00,64.6,42.0,29.94,NE,41,3.0,9.0,44,0.00,,,0.00,weatherlink.com 1.10,2013-03-21 19:41:00,
2013-03-21 15:55:00,65.2,40.0,29.94,NNE,17,2.0,15.0,40,0.00,,,0.00,weatherlink.com 1.10,2013-03-21 19:55:00,
2013-03-21 16:12:00,64.1,43.0,29.94,NNW,330,5.0,12.0,46,0.00,,,0.00,weatherlink.com 1.10,2013-03-21 20:12:00,
2013-03-21 16:27:00,64.0,41.0,29.94,NNE,30,5.0,11.0,43,0.00,,,0.00,weatherlink.com 1.10,2013-03-21 20:27:00,
2013-03-21 16:43:00,64.9,39.0,29.94,NNE,19,3.0,9.0,39,0.00,,,0.00,weatherlink.com 1.10,2013-03-21 20:43:00,
2013-03-21 16:59:00,63.9,41.0,29.93,North,355,4.0,8.0,44,0.00,,,0.00,weatherlink.com 1.10,2013-03-21 20:59:00,
2013-03-21 17:17:00,62.7,42.0,29.93,NW,318,6.0,8.0,47,0.00,,,0.00,weatherlink.com 1.10,2013-03-21 21:17:00,
2013-03-21 17:34:00,62.0,42.0,29.93,NE,40,2.0,8.0,48,0.00,,,0.00,weatherlink.com 1.10,2013-03-21 21:34:00,
2013-03-21 18:05:00,61.6,42.0,29.94,North,350,7.0,10.0,49,0.00,,,0.00,weatherlink.com 1.10,2013-03-21 22:05:00,
2013-03-21 18:19:00,61.1,43.0,29.94,NNW,340,2.0,8.0,51,0.00,,,0.00,weatherlink.com 1.10,2013-03-21 22:19:00,
2013-03-21 18:34:00,60.6,43.0,29.93,NNW,329,3.0,9.0,52,0.00,,,0.00,weatherlink.com 1.10,2013-03-21 22:34:00,
2013-03-21 18:52:00,59.7,42.0,29.93,NE,49,1.0,8.0,53,0.00,,,0.00,weatherlink.com 1.10,2013-03-21 22:52:00,
2013-03-21 19:06:00,58.7,43.0,29.94,WNW,300,1.0,7.0,57,0.00,,,0.00,weatherlink.com 1.10,2013-03-21 23:06:00,
2013-03-21 19:22:00,57.9,44.0,29.94,NW,306,2.0,5.0,60,0.00,,,0.00,weatherlink.com 1.10,2013-03-21 23:22:00,
2013-03-21 19:39:00,57.3,44.0,29.94,NW,314,0.0,4.0,61,0.00,,,0.00,weatherlink.com 1.10,2013-03-21 23:39:00,
2013-03-21 19:56:00,56.8,44.0,29.95,NNW,328,0.0,3.0,62,0.00,,,0.00,weatherlink.com 1.10,2013-03-21 23:56:00,
2013-03-21 20:13:00,55.9,44.0,29.95,NNW,341,0.0,1.0,64,0.00,,,0.00,weatherlink.com 1.10,2013-03-22 00:13:00,
2013-03-21 20:26:00,55.2,44.0,29.95,NNW,342,0.0,1.0,66,0.00,,,0.00,weatherlink.com 1.10,2013-03-22 00:26:00,
2013-03-21 20:42:00,54.2,44.0,29.95,NNW,342,0.0,0.0,68,0.00,,,0.00,weatherlink.com 1.10,2013-03-22 00:42:00,
2013-03-21 20:59:00,53.6,44.0,29.95,NNW,341,0.0,0.0,71,0.00,,,0.00,weatherlink.com 1.10,2013-03-22 00:59:00,
2013-03-21 21:14:00,53.2,44.0,29.96,NNW,341,0.0,0.0,72,0.00,,,0.00,weatherlink.com 1.10,2013-03-22 01:14:00,
2013-03-21 21:30:00,52.7,44.0,29.95,NNW,341,0.0,0.0,73,0.00,,,0.00,weatherlink.com 1.10,2013-03-22 01:30:00,
2013-03-21 21:47:00,52.5,45.0,29.95,NNW,341,0.0,0.0,75,0.00,,,0.00,weatherlink.com 1.10,2013-03-22 01:47:00,
2013-03-21 22:04:00,51.7,44.0,29.96,NNW,341,0.0,0.0,76,0.00,,,0.00,weatherlink.com 1.10,2013-03-22 02:04:00,
2013-03-21 22:19:00,50.8,45.0,29.96,NNW,342,0.0,1.0,80,0.00,,,0.00,weatherlink.com 1.10,2013-03-22 02:19:00,
2013-03-21 22:35:00,50.0,44.0,29.96,NNW,342,0.0,0.0,81,0.00,,,0.00,weatherlink.com 1.10,2013-03-22 02:35:00,
2013-03-21 22:50:00,50.0,44.0,29.96,NNW,342,0.0,0.0,81,0.00,,,0.00,weatherlink.com 1.10,2013-03-22 02:50:00,
2013-03-21 23:10:00,49.5,45.0,29.96,NNW,342,0.0,0.0,83,0.00,,,0.00,weatherlink.com 1.10,2013-03-22 03:10:00,
2013-03-21 23:22:00,49.0,44.0,29.96,NNW,341,0.0,1.0,84,0.00,,,0.00,weatherlink.com 1.10,2013-03-22 03:22:00,
2013-03-21 23:40:00,48.5,44.0,29.95,NNW,342,0.0,1.0,85,0.00,,,0.00,weatherlink.com 1.10,2013-03-22 03:40:00,
2013-03-21 23:55:00,48.4,44.0,29.96,NNW,341,0.0,1.0,85,0.00,,,0.00,weatherlink.com 1.10,2013-03-22 03:55:00,